Wind_Speed
2 3 2 3 4 4 5 5 6 6 7 8 9 9 10 10 11 11 11 11 11 11 12 11 10 8 6 7 2 2 3 3 4 5 5 5 8 10 13 6 3 10 5 1 3 4 5
3 3 3 4 5 6 6 7 8 8 8 9 10 10 11 11 11 12 12 12 11 11 12 11 9 8 5 11 1 1 1 2 4 2 2 4 9 9 10 5 8 6 6 10 9 9 5
2 3 4 5 6 7 8 9 10 10 10 10 10 11 12 12 12 12 12 12 11 11 11 10 8 7 8 7 3 3 5 2 4 4 4 5 5 8 8 7 11 6 11 12 16 11 5
4 4 4 5 6 7 8 9 10 11 12 12 11 12 12 13 12 12 12 12 11 10 9 9 7 6 7 5 5 7 7 6 5 5 4 5 6 11 14 13 8 11 14 14 15 8 6
6 6 6 6 7 8 9 10 11 11 12 13 13 13 13 13 13 12 12 11 10 10 9 6 4 5 12 5 9 9 9 6 6 6 6 7 7 13 15 10 12 16 12 15 6 7 4
7 7 8 8 8 9 9 10 11 12 12 13 13 13 13 13 13 12 11 11 10 10 8 7 7 8 13 8 7 11 10 8 7 5 8 9 9 11 11 11 13 12 11 10 16 3 9
6 7 8 9 9 9 10 10 11 12 12 13 13 13 13 13 11 11 9 7 10 2 7 13 10 11 5 3 9 11 11 8 10 7 10 13 9 12 16 11 10 10 13 12 9 1 4
8 8 8 8 9 10 10 11 11 12 12 13 13 13 13 12 9 7 3 3 4 6 11 15 20 14 4 6 10 12 13 12 12 11 14 10 11 16 3 7 8 10 10 10 10 3 3
10 10 10 10 9 10 10 11 12 12 13 13 13 12 12 10 7 4 3 9 7 8 8 16 21 22 14 12 14 16 18 18 12 12 14 14 2 6 2 5 8 11 10 11 6 10 9
11 11 11 11 11 10 11 11 12 12 13 13 12 11 10 5 1 2 7 4 5 6 5 13 15 16 20 14 17 15 19 17 9 13 13 10 14 2 5 9 11 13 2 1 7 10 12
12 13 13 12 12 12 12 12 12 12 13 12 12 11 7 6 2 4 2 4 6 3 5 12 17 11 18 19 5 17 19 20 16 11 8 12 12 5 9 10 4 11 4 8 9 11 14
12 13 13 14 14 13 13 13 13 13 13 12 12 11 6 2 9 5 8 6 4 5 10 8 11 12 17 20 19 17 20 20 13 13 10 16 2 7 11 8 7 11 6 10 12 12 12
14 14 14 13 14 14 13 13 14 14 14 13 12 10 9 13 7 3 6 5 5 9 15 12 15 15 20 17 20 12 18 17 14 10 12 12 13 10 8 8 8 10 9 9 10 12 8
14 14 14 14 14 14 14 14 14 15 15 13 12 10 10 13 7 8 4 8 10 12 22 8 11 18 19 19 20 17 17 16 19 17 11 12 14 19 12 10 11 12 10 8 14 14 3
14 15 15 14 14 15 15 15 15 14 16 14 10 5 7 7 15 6 9 10 11 17 11 8 8 8 17 20 13 19 19 18 18 18 16 11 10 13 14 8 10 12 11 13 13 15 14
15 14 14 14 14 14 15 16 15 14 15 15 7 5 9 9 9 8 9 16 18 7 9 3 8 12 15 19 19 20 17 18 19 20 20 12 5 9 10 4 8 12 11 9 8 13 14
18 16 15 14 15 15 15 16 16 14 14 9 3 6 10 7 9 11 10 17 17 11 3 4 11 16 15 13 15 14 13 17 19 18 18 14 5 9 11 8 10 7 11 10 14 12 13
17 17 17 16 14 15 15 15 16 16 12 6 6 5 8 11 12 14 12 17 23 11 4 7 7 15 10 13 16 14 12 14 13 13 16 12 7 11 14 11 13 13 13 11 7 11 12
16 15 17 18 16 14 14 14 15 15 16 11 6 6 6 13 7 11 17 21 26 10 8 7 7 14 5 10 1 7 12 12 9 4 7 3 9 10 12 12 15 8 12 14 13 11 14
15 16 15 16 17 16 13 13 12 12 11 11 7 4 8 12 19 16 15 19 16 6 16 11 11 12 8 9 8 8 4 6 4 4 9 7 10 8 12 1 1 15 11 13 15 10 13
15 16 16 17 15 16 15 13 11 9 9 7 7 5 6 6 12 14 14 11 12 12 12 10 8 10 9 8 13 9 11 6 6 2 4 4 9 12 15 18 17 15 16 17 14 16 15
15 16 16 17 15 15 16 14 10 6 3 4 10 10 16 14 5 9 11 11 9 17 11 14 11 11 12 10 11 7 11 15 5 9 7 10 9 11 16 19 20 19 19 14 16 18 15
14 16 17 16 15 14 14 14 12 6 2 5 11 9 10 8 5 6 10 9 12 16 11 7 4 13 13 7 7 10 12 8 9 7 4 7 7 8 14 16 15 15 17 14 15 16 17
14 16 18 17 15 13 12 13 11 8 7 5 10 11 10 10 8 10 15 13 9 8 6 4 4 9 11 9 6 7 8 8 7 5 7 5 5 7 11 13 15 15 11 8 14 14 15
14 15 17 16 15 13 12 11 10 7 2 2 8 6 8 9 17 6 3 2 3 3 4 7 1 8 10 8 3 5 8 11 13 12 11 10 6 8 10 13 14 17 4 16 14 13 14
12 13 16 16 15 13 11 10 9 8 3 3 6 6 7 11 8 13 13 5 7 8 7 16 10 3 8 8 6 11 8 11 9 15 16 15 9 8 12 13 16 13 14 16 21 6 14
10 11 15 15 14 13 11 10 8 7 6 3 2 10 4 11 4 10 7 10 12 13 7 14 15 5 6 7 10 12 13 16 15 14 11 13 11 15 12 13 16 17 17 26 13 7 15
10 12 13 14 13 12 11 10 8 7 6 2 2 11 5 8 11 6 6 9 13 8 8 15 5 4 5 7 8 8 9 10 15 14 10 13 11 12 11 14 20 16 12 4 1 7 9
12 11 12 13 12 12 10 9 8 6 5 3 4 6 8 7 9 8 9 11 9 7 9 10 10 4 5 6 8 8 11 10 9 8 14 3 11 9 9 7 8 12 15 12 8 5 7
Wind_Direction
8 6 344 340 334 327 326 321 319 321 325 326 324 327 325 325 324 325 328 329 333 336 336 334 331 331 327 280 51 359 29 79 87 27 272 264 263 249 266 279 69 280 94 269 226 279 335
359 352 328 327 321 318 316 314 316 316 317 315 315 318 316 317 316 318 321 321 326 331 332 332 329 324 312 267 263 349 338 94 73 250 271 244 299 340 307 320 284 12 341 302 289 290 263
356 347 328 322 319 318 317 315 314 313 313 313 312 311 310 310 312 314 315 315 319 323 326 328 328 318 277 261 175 211 193 229 244 240 266 280 302 277 303 256 241 284 273 258 236 231 310
16 3 346 333 320 317 315 313 313 313 311 311 311 306 305 308 310 311 308 309 311 312 317 320 327 311 275 188 208 207 207 239 252 249 262 279 276 281 283 287 298 251 261 263 258 147 124
12 1 358 349 335 325 318 314 312 312 311 311 309 305 304 304 305 306 305 307 303 301 302 305 341 323 270 246 210 211 203 222 235 231 249 271 276 265 272 232 249 231 249 252 53 120 327
11 359 351 346 338 331 325 318 314 311 308 305 304 303 303 302 305 305 306 307 298 283 283 273 240 273 233 241 202 198 200 221 223 229 247 252 248 249 223 244 253 326 229 241 152 178 148
1 0 352 344 340 336 329 324 318 313 309 305 303 301 300 300 304 307 316 321 303 51 238 237 295 231 152 160 160 202 198 213 222 233 239 204 235 237 240 230 0 339 318 331 338 332 7
5 358 347 343 339 335 331 325 321 317 313 307 302 299 297 297 299 297 308 296 35 322 296 255 243 249 221 195 201 211 198 210 209 228 222 234 230 252 19 13 335 302 287 288 275 221 208
3 354 348 344 339 336 331 327 322 320 316 311 305 301 297 298 303 297 250 300 316 326 266 267 232 227 220 227 243 200 198 211 207 225 231 246 221 37 30 294 264 264 268 277 337 331 277
358 353 349 344 338 337 334 329 324 321 317 314 310 304 298 292 230 243 262 247 321 311 271 248 194 223 212 210 228 224 200 209 240 234 237 232 262 189 242 240 247 268 317 355 296 276 282
355 351 345 342 339 336 331 328 326 323 317 315 311 304 292 255 246 231 302 317 301 270 265 192 172 208 192 196 217 200 193 213 237 216 257 227 238 193 242 242 260 265 4 305 287 282 276
351 350 347 341 341 335 330 328 325 322 318 314 308 302 280 290 245 213 321 292 296 234 235 147 147 194 191 204 234 181 187 216 227 265 217 271 251 258 232 233 255 282 308 275 268 262 262
347 346 345 345 340 337 332 328 326 323 318 312 303 293 259 218 173 218 282 255 221 235 242 169 172 197 204 192 218 182 189 202 217 214 234 220 236 229 243 234 199 251 257 273 262 241 268
351 348 344 343 342 339 334 330 328 325 321 314 300 284 256 228 217 264 261 223 237 215 246 217 189 191 204 199 212 183 206 209 218 225 246 216 215 208 189 237 262 209 246 275 301 296 113
351 351 347 344 342 342 339 333 331 329 324 319 308 294 257 231 218 216 226 222 219 252 244 199 208 237 202 211 197 208 214 215 213 225 246 277 228 168 194 198 224 253 255 279 292 279 275
351 350 349 346 343 345 340 336 334 332 328 325 309 245 245 196 186 185 224 239 235 267 334 345 227 217 236 216 190 202 200 223 225 216 231 262 264 163 169 230 257 271 295 282 240 261 269
351 350 347 347 347 345 343 338 338 336 333 329 285 223 167 201 180 198 223 228 243 266 305 291 270 289 242 214 210 219 214 218 217 226 207 240 250 273 153 193 256 199 233 239 268 288 301
350 350 347 347 348 347 346 342 341 340 349 326 283 254 175 171 196 221 231 240 257 273 163 262 281 292 321 297 210 220 241 242 197 244 189 224 242 241 255 216 229 239 286 302 252 262 253
347 350 347 349 349 350 348 346 344 344 347 347 270 221 180 185 219 227 227 242 244 249 257 239 251 263 248 318 1 253 254 41 52 184 39 253 230 256 253 273 266 221 252 271 270 278 277
346 347 349 349 350 349 350 347 344 340 341 336 289 205 158 207 242 284 281 217 229 216 281 240 262 264 237 248 277 296 259 103 73 337 13 316 286 227 265 14 236 291 276 256 267 265 273
344 343 343 348 351 349 349 350 345 338 331 328 252 309 18 188 220 246 265 286 205 233 220 281 231 268 243 243 216 228 276 230 152 213 278 265 268 287 282 283 284 247 228 237 229 245 251
347 346 344 342 347 351 351 351 352 342 325 307 318 347 341 281 307 280 229 257 272 226 198 223 227 246 246 254 262 228 238 273 164 198 217 248 245 256 277 281 277 268 264 260 273 287 286
349 351 348 343 344 348 354 355 356 358 41 336 347 315 282 305 224 251 252 214 233 277 254 228 258 236 247 268 319 5 4 346 37 355 250 243 239 242 266 279 271 272 271 257 267 267 266
345 346 349 346 343 343 354 359 360 12 50 65 343 325 285 277 245 211 249 196 215 255 303 258 264 321 26 339 316 275 290 292 266 260 297 337 335 282 276 272 253 262 299 314 325 279 272
338 342 345 346 341 338 349 1 360 4 17 21 8 346 312 294 316 240 308 249 239 101 269 303 118 45 350 318 276 251 262 264 259 258 236 249 251 277 263 259 267 272 81 294 293 265 44
331 340 344 345 341 336 344 358 4 358 12 84 9 334 298 291 29 356 339 244 265 209 203 241 240 8 329 293 234 240 230 223 226 231 237 232 223 249 262 275 257 268 279 348 297 205 41
320 332 342 343 341 338 338 349 6 1 8 13 41 338 310 290 320 353 342 339 323 295 295 200 214 184 218 244 242 235 231 243 240 228 202 218 224 228 236 254 268 282 296 78 334 356 3
309 320 332 336 337 337 337 342 357 7 359 8 2 342 4 300 300 348 325 319 331 313 282 2 168 145 242 224 254 259 262 246 226 256 236 203 208 226 244 257 259 283 320 33 69 25 357
298 313 320 327 330 332 334 334 346 5 6 83 32 339 321 279 283 301 290 265 265 288 334 317 313 298 331 261 219 251 254 275 274 252 227 198 228 231 219 263 90 51 66 63 37 30 25
Height
1537 1536 1536 1536 1535 1535 1534 1534 1533 1532 1531 1530 1529 1528 1527 1526 1526 1525 1523 1521 1519 1518 1516 1516 1514 1513 1511 1510 1506 1506 1508 1506 1506 1507 1510 1507 1505 1500 1493 1487 1490 1488 1486 1489 1487 1487 1489
1537 1537 1537 1536 1535 1535 1534 1534 1532 1531 1530 1530 1529 1527 1527 1526 1525 1524 1521 1520 1518 1517 1516 1515 1514 1512 1511 1510 1508 1506 1507 1508 1507 1510 1510 1508 1503 1501 1498 1491 1490 1489 1488 1489 1487 1484 1485
1538 1537 1538 1536 1536 1535 1534 1533 1532 1531 1529 1529 1527 1527 1526 1525 1523 1522 1520 1519 1518 1517 1516 1515 1513 1512 1511 1511 1509 1507 1508 1510 1510 1509 1509 1509 1507 1506 1499 1495 1493 1492 1492 1485 1481 1481 1484
1539 1538 1537 1536 1536 1535 1534 1533 1532 1530 1529 1528 1527 1526 1524 1522 1521 1520 1519 1518 1517 1516 1515 1515 1513 1513 1511 1508 1509 1507 1509 1510 1509 1509 1509 1508 1508 1506 1501 1495 1493 1493 1489 1492 1470 1476 1480
1540 1539 1537 1537 1536 1535 1533 1532 1530 1530 1528 1527 1526 1525 1523 1521 1520 1519 1518 1516 1515 1515 1514 1513 1514 1513 1507 1505 1505 1507 1508 1508 1509 1509 1508 1508 1507 1503 1497 1496 1496 1486 1496 1484 1480 1477 1479
1540 1539 1538 1537 1535 1534 1533 1531 1530 1529 1527 1526 1525 1523 1521 1520 1519 1517 1517 1515 1514 1512 1512 1512 1512 1515 1505 1503 1503 1505 1507 1508 1508 1507 1507 1506 1504 1499 1494 1493 1505 1492 1486 1477 1485 1476 1478
1541 1539 1538 1537 1535 1534 1532 1531 1530 1528 1526 1524 1523 1521 1520 1519 1518 1516 1516 1514 1515 1513 1511 1506 1504 1501 1501 1502 1503 1505 1506 1507 1507 1506 1503 1500 1499 1499 1486 1481 1482 1486 1486 1485 1476 1474 1483
1540 1539 1538 1536 1534 1533 1531 1530 1528 1527 1525 1523 1521 1520 1518 1517 1517 1517 1516 1516 1516 1519 1511 1503 1502 1501 1501 1501 1502 1503 1505 1507 1504 1502 1499 1496 1500 1485 1479 1484 1489 1490 1492 1490 1478 1475 1483
1541 1539 1538 1536 1534 1533 1531 1529 1527 1525 1524 1522 1520 1518 1516 1516 1516 1517 1516 1518 1517 1517 1511 1495 1493 1496 1499 1501 1498 1497 1502 1501 1498 1498 1493 1495 1486 1485 1487 1491 1495 1491 1493 1487 1487 1479 1477
1541 1539 1537 1535 1534 1532 1530 1528 1526 1524 1522 1520 1518 1517 1516 1516 1518 1517 1518 1518 1518 1517 1509 1486 1486 1490 1494 1496 1495 1492 1497 1499 1494 1495 1490 1489 1484 1488 1490 1494 1488 1498 1475 1484 1489 1493 1501
1542 1539 1537 1535 1533 1531 1529 1527 1525 1522 1520 1518 1516 1516 1515 1516 1516 1517 1518 1518 1516 1517 1521 1466 1479 1483 1486 1490 1484 1488 1493 1496 1492 1490 1488 1490 1487 1489 1493 1489 1483 1490 1482 1486 1487 1492 1489
1542 1540 1538 1535 1533 1530 1528 1526 1524 1521 1519 1517 1515 1514 1515 1515 1515 1516 1517 1517 1517 1518 1512 1474 1477 1482 1482 1486 1483 1483 1490 1494 1492 1487 1485 1484 1482 1483 1485 1484 1485 1484 1488 1488 1486 1487 1505
1543 1540 1538 1536 1533 1530 1527 1525 1522 1520 1517 1515 1513 1512 1513 1513 1515 1516 1517 1518 1518 1511 1473 1468 1473 1474 1476 1479 1480 1481 1487 1492 1494 1505 1499 1486 1484 1483 1483 1486 1484 1488 1495 1512 1511 1503 1501
1542 1540 1537 1535 1532 1530 1527 1524 1521 1518 1515 1512 1511 1509 1509 1510 1512 1516 1517 1515 1515 1484 1474 1458 1460 1465 1475 1471 1477 1477 1484 1490 1485 1484 1484 1495 1499 1478 1479 1486 1487 1487 1491 1508 1529 1513 1510
1541 1539 1537 1534 1531 1529 1526 1523 1519 1516 1513 1510 1508 1507 1506 1507 1509 1513 1516 1511 1497 1475 1463 1461 1464 1467 1470 1466 1469 1474 1482 1482 1479 1481 1492 1483 1481 1460 1471 1476 1483 1488 1496 1479 1495 1486 1495
1542 1539 1536 1534 1531 1528 1525 1522 1518 1515 1512 1509 1507 1507 1506 1507 1508 1512 1511 1502 1483 1472 1473 1467 1474 1471 1473 1465 1469 1469 1475 1472 1473 1472 1476 1475 1491 1470 1473 1479 1480 1483 1478 1497 1487 1517 1517
1542 1539 1536 1533 1530 1528 1524 1521 1517 1514 1511 1508 1506 1505 1504 1506 1509 1511 1504 1492 1483 1478 1481 1477 1474 1470 1462 1461 1460 1469 1470 1466 1465 1466 1470 1474 1483 1478 1472 1484 1486 1483 1487 1485 1485 1486 1504
1542 1539 1536 1533 1530 1527 1524 1521 1517 1513 1510 1508 1507 1501 1502 1505 1507 1501 1497 1488 1480 1475 1481 1481 1477 1469 1469 1460 1460 1467 1466 1463 1462 1463 1470 1473 1480 1492 1480 1468 1468 1471 1475 1477 1494 1498 1482
1541 1539 1536 1533 1530 1527 1524 1521 1517 1514 1510 1507 1506 1498 1501 1503 1498 1492 1489 1485 1480 1476 1480 1480 1478 1475 1472 1473 1476 1469 1465 1467 1466 1468 1478 1475 1483 1498 1492 1479 1467 1473 1474 1475 1475 1478 1490
1541 1538 1535 1533 1530 1527 1524 1521 1518 1515 1512 1510 1507 1492 1497 1500 1495 1491 1484 1479 1475 1481 1481 1479 1477 1475 1477 1481 1477 1478 1468 1471 1477 1476 1479 1481 1480 1487 1495 1487 1483 1485 1475 1473 1475 1487 1483
1541 1538 1535 1532 1529 1527 1524 1521 1518 1515 1513 1511 1506 1489 1489 1489 1489 1489 1484 1475 1477 1481 1484 1481 1480 1479 1481 1485 1482 1483 1474 1472 1478 1480 1482 1482 1492 1486 1481 1475 1472 1472 1471 1467 1472 1471 1482
1540 1537 1535 1532 1529 1526 1523 1521 1518 1515 1513 1511 1506 1502 1497 1489 1488 1481 1483 1483 1477 1476 1478 1484 1486 1479 1481 1483 1478 1479 1477 1476 1476 1478 1483 1482 1493 1490 1491 1479 1473 1472 1465 1463 1464 1462 1460
1539 1537 1534 1531 1529 1526 1523 1521 1518 1516 1514 1513 1512 1509 1506 1492 1488 1488 1483 1485 1483 1480 1475 1478 1481 1482 1479 1482 1481 1484 1484 1483 1482 1486 1482 1485 1488 1495 1501 1479 1476 1485 1468 1462 1461 1457 1458
1539 1537 1534 1531 1528 1526 1523 1521 1520 1517 1516 1516 1517 1515 1509 1493 1484 1483 1481 1480 1480 1481 1481 1482 1487 1484 1490 1490 1487 1487 1487 1486 1486 1487 1487 1490 1491 1492 1498 1487 1507 1470 1457 1454 1460 1455 1454
1538 1536 1534 1531 1528 1526 1523 1521 1520 1518 1517 1517 1517 1517 1511 1498 1487 1481 1483 1483 1485 1489 1491 1491 1490 1495 1496 1493 1489 1494 1493 1490 1488 1485 1488 1489 1495 1499 1503 1498 1480 1467 1465 1466 1464 1463 1463
1537 1536 1533 1531 1528 1526 1524 1522 1520 1519 1517 1517 1517 1516 1516 1508 1494 1496 1489 1490 1488 1487 1493 1495 1495 1497 1499 1496 1491 1500 1499 1488 1490 1487 1484 1486 1490 1501 1499 1503 1501 1469 1460 1466 1464 1465 1462
1536 1535 1533 1530 1528 1526 1524 1522 1520 1519 1518 1517 1516 1516 1516 1512 1503 1504 1499 1500 1495 1491 1489 1487 1492 1498 1501 1496 1495 1491 1488 1477 1483 1482 1484 1486 1490 1497 1499 1502 1486 1464 1465 1472 1515 1490 1474
1535 1534 1532 1530 1528 1525 1524 1523 1520 1519 1518 1517 1517 1517 1517 1513 1507 1508 1507 1506 1503 1499 1494 1496 1492 1497 1496 1501 1496 1485 1479 1469 1473 1469 1471 1479 1489 1493 1492 1498 1498 1467 1469 1479 1490 1484 1482
1533 1532 1531 1529 1527 1525 1524 1523 1521 1519 1519 1519 1520 1520 1518 1517 1509 1509 1508 1508 1509 1508 1508 1502 1497 1497 1492 1489 1487 1483 1482 1472 1469 1476 1466 1482 1475 1478 1481 1481 1473 1474 1479 1489 1490 1487 1482